Time,TemperatureF,DewpointF,PressureIn,WindDirection,WindDirectionDegrees,WindSpeedMPH,WindSpeedGustMPH,Humidity,HourlyPrecipIn,Conditions,Clouds,dailyrainin,SoftwareType,DateUTC
2013-03-07 00:00:00,28.3,21.7,30.04,ESE,107,0.0,0.0,76,0.00,,,0.00,Wunderground v.1.15,2013-03-07 07:00:00,
2013-03-07 00:10:00,28.4,21.8,30.04,ENE,64,1.0,1.0,76,0.00,,,0.00,Wunderground v.1.15,2013-03-07 07:10:00,
2013-03-07 00:15:00,28.5,21.9,30.03,NE,40,1.0,1.0,76,0.00,,,0.00,Wunderground v.1.15,2013-03-07 07:15:00,
2013-03-07 00:20:00,28.5,22.2,30.04,NE,40,0.0,0.0,77,0.00,,,0.00,Wunderground v.1.15,2013-03-07 07:20:00,
2013-03-07 00:30:00,28.3,21.7,30.04,NNE,25,0.0,0.0,76,0.00,,,0.00,Wunderground v.1.15,2013-03-07 07:30:00,
2013-03-07 00:35:00,28.5,21.9,30.04,NNE,25,0.0,0.0,76,0.00,,,0.00,Wunderground v.1.15,2013-03-07 07:35:00,
2013-03-07 00:45:00,28.0,21.7,30.04,NNE,25,0.0,0.0,77,0.00,,,0.00,Wunderground v.1.15,2013-03-07 07:45:00,
2013-03-07 00:54:00,27.8,21.5,30.05,NNE,25,0.0,0.0,77,0.00,,,0.00,Wunderground v.1.15,2013-03-07 07:54:00,
2013-03-07 01:00:00,27.6,21.6,30.04,NNE,25,0.0,0.0,78,0.00,,,0.00,Wunderground v.1.15,2013-03-07 08:00:00,
2013-03-07 01:10:00,27.5,21.5,30.05,ENE,58,0.0,0.0,78,0.00,,,0.00,Wunderground v.1.15,2013-03-07 08:10:00,
2013-03-07 01:15:00,27.6,21.6,30.05,ENE,58,0.0,0.0,78,0.00,,,0.00,Wunderground v.1.15,2013-03-07 08:15:00,
2013-03-07 01:20:00,27.6,21.3,30.05,ENE,58,0.0,0.0,77,0.00,,,0.00,Wunderground v.1.15,2013-03-07 08:20:00,
2013-03-07 01:25:00,27.5,21.2,30.05,ENE,58,0.0,0.0,77,0.00,,,0.00,Wunderground v.1.15,2013-03-07 08:25:00,
2013-03-07 01:30:00,27.4,21.1,30.05,ENE,58,0.0,0.0,77,0.00,,,0.00,Wunderground v.1.15,2013-03-07 08:30:00,
2013-03-07 01:40:00,27.3,21.0,30.06,ENE,58,0.0,0.0,77,0.00,,,0.00,Wunderground v.1.15,2013-03-07 08:40:00,
2013-03-07 01:45:00,27.2,20.9,30.05,ENE,59,0.0,0.0,77,0.00,,,0.00,Wunderground v.1.15,2013-03-07 08:45:00,
2013-03-07 01:50:00,27.4,21.1,30.05,ENE,59,0.0,0.0,77,0.00,,,0.00,Wunderground v.1.15,2013-03-07 08:50:00,
2013-03-07 01:55:00,27.2,20.9,30.05,ENE,59,0.0,0.0,77,0.00,,,0.00,Wunderground v.1.15,2013-03-07 08:55:00,
2013-03-07 02:00:00,27.0,21.1,30.05,ENE,59,0.0,0.0,78,0.00,,,0.00,Wunderground v.1.15,2013-03-07 09:00:00,
2013-03-07 02:09:00,26.7,20.5,30.05,ENE,59,0.0,0.0,77,0.00,,,0.00,Wunderground v.1.15,2013-03-07 09:09:00,
2013-03-07 02:15:00,26.7,20.5,30.05,ENE,59,0.0,0.0,77,0.00,,,0.00,Wunderground v.1.15,2013-03-07 09:15:00,
2013-03-07 02:20:00,26.5,20.3,30.05,ENE,59,0.0,0.0,77,0.00,,,0.00,Wunderground v.1.15,2013-03-07 09:20:00,
2013-03-07 02:25:00,26.4,20.2,30.05,ENE,59,0.0,0.0,77,0.00,,,0.00,Wunderground v.1.15,2013-03-07 09:25:00,
2013-03-07 02:34:00,26.1,20.2,30.05,ENE,59,0.0,0.0,78,0.00,,,0.00,Wunderground v.1.15,2013-03-07 09:34:00,
2013-03-07 02:39:00,26.0,20.1,30.04,ENE,59,0.0,0.0,78,0.00,,,0.00,Wunderground v.1.15,2013-03-07 09:39:00,
2013-03-07 02:45:00,25.9,20.0,30.05,ENE,59,0.0,0.0,78,0.00,,,0.00,Wunderground v.1.15,2013-03-07 09:45:00,
2013-03-07 02:50:00,25.7,19.8,30.04,ENE,59,0.0,0.0,78,0.00,,,0.00,Wunderground v.1.15,2013-03-07 09:50:00,
2013-03-07 02:55:00,25.5,19.9,30.04,ENE,59,0.0,0.0,79,0.00,,,0.00,Wunderground v.1.15,2013-03-07 09:55:00,
2013-03-07 03:00:00,25.4,20.1,30.05,ENE,59,0.0,0.0,80,0.00,,,0.00,Wunderground v.1.15,2013-03-07 10:00:00,
2013-03-07 03:10:00,25.2,19.6,30.05,ENE,59,0.0,0.0,79,0.00,,,0.00,Wunderground v.1.15,2013-03-07 10:10:00,
2013-03-07 03:19:00,25.0,19.7,30.04,ENE,59,0.0,0.0,80,0.00,,,0.00,Wunderground v.1.15,2013-03-07 10:19:00,
2013-03-07 03:25:00,24.9,19.6,30.04,ENE,59,0.0,0.0,80,0.00,,,0.00,Wunderground v.1.15,2013-03-07 10:25:00,
2013-03-07 03:30:00,24.9,19.9,30.04,ENE,59,0.0,0.0,81,0.00,,,0.00,Wunderground v.1.15,2013-03-07 10:30:00,
2013-03-07 03:39:00,24.4,19.4,30.04,ENE,59,0.0,0.0,81,0.00,,,0.00,Wunderground v.1.15,2013-03-07 10:39:00,
2013-03-07 03:44:00,24.3,19.3,30.04,ENE,59,0.0,0.0,81,0.00,,,0.00,Wunderground v.1.15,2013-03-07 10:44:00,
2013-03-07 03:50:00,24.2,19.2,30.04,ENE,59,0.0,0.0,81,0.00,,,0.00,Wunderground v.1.15,2013-03-07 10:50:00,
2013-03-07 03:55:00,24.0,19.0,30.04,ENE,59,0.0,0.0,81,0.00,,,0.00,Wunderground v.1.15,2013-03-07 10:55:00,
2013-03-07 04:00:00,23.9,18.9,30.04,ENE,59,0.0,0.0,81,0.00,,,0.00,Wunderground v.1.15,2013-03-07 11:00:00,
2013-03-07 04:10:00,23.9,19.2,30.04,ENE,59,0.0,0.0,82,0.00,,,0.00,Wunderground v.1.15,2013-03-07 11:10:00,
2013-03-07 04:15:00,23.8,19.1,30.03,ENE,59,0.0,0.0,82,0.00,,,0.00,Wunderground v.1.15,2013-03-07 11:15:00,
2013-03-07 04:25:00,23.6,18.9,30.03,ENE,59,0.0,0.0,82,0.00,,,0.00,Wunderground v.1.15,2013-03-07 11:25:00,
2013-03-07 04:30:00,23.6,19.2,30.03,ENE,59,0.0,0.0,83,0.00,,,0.00,Wunderground v.1.15,2013-03-07 11:30:00,
2013-03-07 04:40:00,23.4,18.7,30.04,ENE,59,0.0,0.0,82,0.00,,,0.00,Wunderground v.1.15,2013-03-07 11:40:00,
2013-03-07 04:45:00,23.4,19.0,30.04,ENE,59,0.0,0.0,83,0.00,,,0.00,Wunderground v.1.15,2013-03-07 11:45:00,
2013-03-07 04:50:00,23.4,18.7,30.04,ENE,59,0.0,0.0,82,0.00,,,0.00,Wunderground v.1.15,2013-03-07 11:50:00,
2013-03-07 05:00:00,23.2,18.5,30.04,ENE,59,0.0,0.0,82,0.00,,,0.00,Wunderground v.1.15,2013-03-07 12:00:00,
2013-03-07 05:10:00,23.0,18.3,30.03,ENE,59,0.0,0.0,82,0.00,,,0.00,Wunderground v.1.15,2013-03-07 12:10:00,
2013-03-07 05:15:00,22.8,18.4,30.03,ENE,59,0.0,0.0,83,0.00,,,0.00,Wunderground v.1.15,2013-03-07 12:15:00,
2013-03-07 05:25:00,22.7,18.3,30.04,ENE,59,0.0,0.0,83,0.00,,,0.00,Wunderground v.1.15,2013-03-07 12:25:00,
2013-03-07 05:30:00,22.7,18.3,30.04,ENE,59,0.0,0.0,83,0.00,,,0.00,Wunderground v.1.15,2013-03-07 12:30:00,
2013-03-07 05:39:00,22.9,18.5,30.04,ENE,59,0.0,0.0,83,0.00,,,0.00,Wunderground v.1.15,2013-03-07 12:39:00,
2013-03-07 05:45:00,22.9,18.5,30.04,ENE,59,0.0,0.0,83,0.00,,,0.00,Wunderground v.1.15,2013-03-07 12:45:00,
2013-03-07 05:50:00,22.8,18.4,30.05,ENE,59,0.0,0.0,83,0.00,,,0.00,Wunderground v.1.15,2013-03-07 12:50:00,
2013-03-07 05:55:00,22.7,18.3,30.04,ENE,59,0.0,0.0,83,0.00,,,0.00,Wunderground v.1.15,2013-03-07 12:55:00,
2013-03-07 06:00:00,22.6,18.2,30.04,ENE,59,0.0,0.0,83,0.00,,,0.00,Wunderground v.1.15,2013-03-07 13:00:00,
2013-03-07 06:10:00,22.7,18.6,30.05,ENE,59,0.0,0.0,84,0.00,,,0.00,Wunderground v.1.15,2013-03-07 13:10:00,
2013-03-07 06:15:00,22.7,18.3,30.05,ENE,59,0.0,0.0,83,0.00,,,0.00,Wunderground v.1.15,2013-03-07 13:15:00,
2013-03-07 06:24:00,22.8,18.4,30.05,ENE,59,0.0,0.0,83,0.00,,,0.00,Wunderground v.1.15,2013-03-07 13:24:00,
2013-03-07 06:30:00,22.8,18.4,30.05,ENE,59,0.0,0.0,83,0.00,,,0.00,Wunderground v.1.15,2013-03-07 13:30:00,
2013-03-07 06:35:00,22.7,18.0,30.05,ENE,59,0.0,0.0,82,0.00,,,0.00,Wunderground v.1.15,2013-03-07 13:35:00,
2013-03-07 06:40:00,22.8,18.1,30.06,ENE,59,0.0,0.0,82,0.00,,,0.00,Wunderground v.1.15,2013-03-07 13:40:00,
2013-03-07 06:50:00,22.8,18.1,30.06,ENE,59,0.0,0.0,82,0.00,,,0.00,Wunderground v.1.15,2013-03-07 13:50:00,
2013-03-07 07:00:00,23.0,18.3,30.06,ENE,59,0.0,0.0,82,0.00,,,0.00,Wunderground v.1.15,2013-03-07 14:00:00,
2013-03-07 07:10:00,23.1,18.4,30.06,ENE,59,0.0,0.0,82,0.00,,,0.00,Wunderground v.1.15,2013-03-07 14:10:00,
2013-03-07 07:19:00,23.1,18.1,30.07,ENE,59,0.0,0.0,81,0.00,,,0.00,Wunderground v.1.15,2013-03-07 14:19:00,
2013-03-07 07:25:00,23.3,18.3,30.07,ENE,59,0.0,0.0,81,0.00,,,0.00,Wunderground v.1.15,2013-03-07 14:25:00,
2013-03-07 07:35:00,23.3,18.6,30.07,ENE,59,0.0,0.0,82,0.00,,,0.00,Wunderground v.1.15,2013-03-07 14:35:00,
2013-03-07 07:40:00,23.5,18.5,30.07,ENE,59,0.0,0.0,81,0.00,,,0.00,Wunderground v.1.15,2013-03-07 14:40:00,
2013-03-07 07:45:00,23.8,18.5,30.07,ENE,59,0.0,0.0,80,0.00,,,0.00,Wunderground v.1.15,2013-03-07 14:45:00,
2013-03-07 07:50:00,24.0,18.7,30.07,ENE,59,0.0,0.0,80,0.00,,,0.00,Wunderground v.1.15,2013-03-07 14:50:00,
2013-03-07 08:00:00,24.6,19.0,30.07,ESE,114,0.0,0.0,79,0.00,,,0.00,Wunderground v.1.15,2013-03-07 15:00:00,
2013-03-07 08:09:00,27.6,21.0,30.07,East,80,0.0,0.0,76,0.00,,,0.00,Wunderground v.1.15,2013-03-07 15:09:00,
2013-03-07 08:14:00,29.1,22.2,30.07,SSE,167,0.0,0.0,75,0.00,,,0.00,Wunderground v.1.15,2013-03-07 15:14:00,
2013-03-07 08:20:00,32.0,21.2,30.07,SE,144,0.0,0.0,64,0.00,,,0.00,Wunderground v.1.15,2013-03-07 15:20:00,
2013-03-07 08:25:00,33.8,21.8,30.07,ENE,78,0.0,2.0,61,0.00,,,0.00,Wunderground v.1.15,2013-03-07 15:25:00,
2013-03-07 08:30:00,36.2,21.6,30.07,SE,131,0.0,0.0,55,0.00,,,0.00,Wunderground v.1.15,2013-03-07 15:30:00,
2013-03-07 08:40:00,41.7,18.5,30.07,NNW,330,1.0,6.0,39,0.00,,,0.00,Wunderground v.1.15,2013-03-07 15:40:00,
2013-03-07 08:45:00,43.9,18.0,30.07,NNE,15,3.0,6.0,35,0.00,,,0.00,Wunderground v.1.15,2013-03-07 15:45:00,
2013-03-07 08:50:00,45.2,18.5,30.07,North,360,3.0,3.0,34,0.00,,,0.00,Wunderground v.1.15,2013-03-07 15:50:00,
2013-03-07 08:55:00,46.0,17.7,30.07,WNW,303,4.0,8.0,32,0.00,,,0.00,Wunderground v.1.15,2013-03-07 15:55:00,
2013-03-07 09:00:00,46.3,17.3,30.07,NW,317,6.0,8.0,31,0.00,,,0.00,Wunderground v.1.15,2013-03-07 16:00:00,
2013-03-07 09:10:00,46.8,18.5,30.07,NNW,332,7.0,13.0,32,0.00,,,0.00,Wunderground v.1.15,2013-03-07 16:10:00,
2013-03-07 09:15:00,46.9,17.8,30.06,NNW,338,8.0,13.0,31,0.00,,,0.00,Wunderground v.1.15,2013-03-07 16:15:00,
2013-03-07 09:25:00,47.3,18.1,30.06,NNW,336,8.0,9.0,31,0.00,,,0.00,Wunderground v.1.15,2013-03-07 16:25:00,
2013-03-07 09:30:00,47.6,18.4,30.06,NNW,332,8.0,10.0,31,0.00,,,0.00,Wunderground v.1.15,2013-03-07 16:30:00,
2013-03-07 09:40:00,47.8,17.0,30.06,NW,321,9.0,9.0,29,0.00,,,0.00,Wunderground v.1.15,2013-03-07 16:40:00,
2013-03-07 09:50:00,48.1,17.3,30.06,WNW,288,7.0,7.0,29,0.00,,,0.00,Wunderground v.1.15,2013-03-07 16:50:00,
2013-03-07 10:00:00,48.7,17.8,30.05,NNW,331,6.0,6.0,29,0.00,,,0.00,Wunderground v.1.15,2013-03-07 17:00:00,
2013-03-07 10:10:00,49.1,16.5,30.05,NNW,329,6.0,6.0,27,0.00,,,0.00,Wunderground v.1.15,2013-03-07 17:10:00,
2013-03-07 10:15:00,49.4,15.0,30.05,NNW,334,5.0,6.0,25,0.00,,,0.00,Wunderground v.1.15,2013-03-07 17:15:00,
2013-03-07 10:20:00,49.6,16.9,30.05,NW,321,5.0,5.0,27,0.00,,,0.00,Wunderground v.1.15,2013-03-07 17:20:00,
2013-03-07 10:25:00,49.8,16.2,30.05,NW,324,6.0,8.0,26,0.00,,,0.00,Wunderground v.1.15,2013-03-07 17:25:00,
2013-03-07 10:30:00,49.5,16.9,30.05,NW,313,7.0,7.0,27,0.00,,,0.00,Wunderground v.1.15,2013-03-07 17:30:00,
2013-03-07 10:40:00,49.9,15.4,30.04,NNW,331,5.0,5.0,25,0.00,,,0.00,Wunderground v.1.15,2013-03-07 17:40:00,
2013-03-07 10:45:00,50.3,16.7,30.03,NNW,331,5.0,5.0,26,0.00,,,0.00,Wunderground v.1.15,2013-03-07 17:45:00,
2013-03-07 10:50:00,50.3,16.7,30.03,NW,318,5.0,5.0,26,0.00,,,0.00,Wunderground v.1.15,2013-03-07 17:50:00,
2013-03-07 10:55:00,50.3,15.8,30.04,NW,308,6.0,6.0,25,0.00,,,0.00,Wunderground v.1.15,2013-03-07 17:55:00,
2013-03-07 11:00:00,50.7,15.2,30.03,WNW,291,5.0,5.0,24,0.00,,,0.00,Wunderground v.1.15,2013-03-07 18:00:00,
2013-03-07 11:10:00,51.3,14.7,30.03,NNW,331,5.0,7.0,23,0.00,,,0.00,Wunderground v.1.15,2013-03-07 18:10:00,
2013-03-07 11:15:00,51.2,14.6,30.03,NNE,21,6.0,7.0,23,0.00,,,0.00,Wunderground v.1.15,2013-03-07 18:15:00,
2013-03-07 11:20:00,51.5,12.8,30.02,NNW,329,8.0,8.0,21,0.00,,,0.00,Wunderground v.1.15,2013-03-07 18:20:00,
2013-03-07 11:25:00,51.8,9.6,30.02,WNW,290,9.0,15.0,18,0.00,,,0.00,Wunderground v.1.15,2013-03-07 18:25:00,
2013-03-07 11:30:00,51.6,9.4,30.02,NNW,337,9.0,9.0,18,0.00,,,0.00,Wunderground v.1.15,2013-03-07 18:30:00,
2013-03-07 11:40:00,51.9,9.6,30.01,NW,316,8.0,8.0,18,0.00,,,0.00,Wunderground v.1.15,2013-03-07 18:40:00,
2013-03-07 11:50:00,52.1,11.0,30.02,NNW,334,9.0,9.0,19,0.00,,,0.00,Wunderground v.1.15,2013-03-07 18:50:00,
2013-03-07 11:55:00,52.1,9.8,30.01,NNW,337,8.0,9.0,18,0.00,,,0.00,Wunderground v.1.15,2013-03-07 18:55:00,
2013-03-07 12:00:00,52.3,10.0,30.01,North,5,9.0,9.0,18,0.00,,,0.00,Wunderground v.1.15,2013-03-07 19:00:00,
2013-03-07 12:10:00,52.7,7.7,30.00,NW,315,10.0,10.0,16,0.00,,,0.00,Wunderground v.1.15,2013-03-07 19:10:00,
2013-03-07 12:20:00,52.8,7.8,30.00,NNW,342,9.0,9.0,16,0.00,,,0.00,Wunderground v.1.15,2013-03-07 19:20:00,
2013-03-07 12:25:00,52.7,7.7,29.99,NW,320,11.0,14.0,16,0.00,,,0.00,Wunderground v.1.15,2013-03-07 19:25:00,
2013-03-07 12:30:00,52.9,9.2,30.00,NW,318,10.0,10.0,17,0.00,,,0.00,Wunderground v.1.15,2013-03-07 19:30:00,
2013-03-07 12:40:00,53.6,9.8,29.98,NNW,344,7.0,7.0,17,0.00,,,0.00,Wunderground v.1.15,2013-03-07 19:40:00,
2013-03-07 12:45:00,53.6,9.8,29.98,NW,316,9.0,9.0,17,0.00,,,0.00,Wunderground v.1.15,2013-03-07 19:45:00,
2013-03-07 12:55:00,53.5,6.9,29.98,NNW,327,5.0,10.0,15,0.00,,,0.00,Wunderground v.1.15,2013-03-07 19:55:00,
2013-03-07 13:00:00,53.9,10.0,29.98,NNW,332,5.0,8.0,17,0.00,,,0.00,Wunderground v.1.15,2013-03-07 20:00:00,
2013-03-07 13:10:00,53.8,7.1,29.98,NW,321,9.0,9.0,15,0.00,,,0.00,Wunderground v.1.15,2013-03-07 20:10:00,
2013-03-07 13:15:00,53.9,7.2,29.98,NNW,329,9.0,11.0,15,0.00,,,0.00,Wunderground v.1.15,2013-03-07 20:15:00,
2013-03-07 13:20:00,53.9,7.2,29.97,NW,304,9.0,11.0,15,0.00,,,0.00,Wunderground v.1.15,2013-03-07 20:20:00,
2013-03-07 13:25:00,53.5,8.3,29.96,North,349,10.0,11.0,16,0.00,,,0.00,Wunderground v.1.15,2013-03-07 20:25:00,
2013-03-07 13:35:00,53.9,5.7,29.95,SSE,161,7.0,10.0,14,0.00,,,0.00,Wunderground v.1.15,2013-03-07 20:35:00,
2013-03-07 13:40:00,54.2,8.9,29.96,NW,317,6.0,8.0,16,0.00,,,0.00,Wunderground v.1.15,2013-03-07 20:40:00,
2013-03-07 13:50:00,54.7,6.3,29.96,NNW,344,6.0,6.0,14,0.00,,,0.00,Wunderground v.1.15,2013-03-07 20:50:00,
2013-03-07 13:55:00,54.8,6.4,29.96,NNW,336,5.0,7.0,14,0.00,,,0.00,Wunderground v.1.15,2013-03-07 20:55:00,
2013-03-07 14:00:00,54.6,7.8,29.95,NNE,28,5.0,5.0,15,0.00,,,0.00,Wunderground v.1.15,2013-03-07 21:00:00,
2013-03-07 14:10:00,54.7,6.3,29.95,NNW,328,4.0,5.0,14,0.00,,,0.00,Wunderground v.1.15,2013-03-07 21:10:00,
2013-03-07 14:15:00,55.1,5.0,29.96,NNW,333,6.0,8.0,13,0.00,,,0.00,Wunderground v.1.15,2013-03-07 21:15:00,
2013-03-07 14:25:00,55.1,3.3,29.96,WNW,294,7.0,7.0,12,0.00,,,0.00,Wunderground v.1.15,2013-03-07 21:25:00,
2013-03-07 14:30:00,55.1,5.0,29.96,North,355,7.0,7.0,13,0.00,,,0.00,Wunderground v.1.15,2013-03-07 21:30:00,
2013-03-07 14:40:00,54.7,1.1,29.96,NNW,333,7.0,7.0,11,0.00,,,0.00,Wunderground v.1.15,2013-03-07 21:40:00,
2013-03-07 14:45:00,54.5,6.2,29.96,NNW,330,6.0,7.0,14,0.00,,,0.00,Wunderground v.1.15,2013-03-07 21:45:00,
2013-03-07 14:50:00,54.4,7.6,29.97,NNW,340,4.0,11.0,15,0.00,,,0.00,Wunderground v.1.15,2013-03-07 21:50:00,
2013-03-07 15:00:00,54.5,4.6,29.96,NNE,15,6.0,6.0,13,0.00,,,0.00,Wunderground v.1.15,2013-03-07 22:00:00,
2013-03-07 15:10:00,54.5,2.8,29.95,NNW,327,4.0,8.0,12,0.00,,,0.00,Wunderground v.1.15,2013-03-07 22:10:00,
2013-03-07 15:15:00,54.5,-1.1,29.95,NNW,327,4.0,8.0,10,0.00,,,0.00,Wunderground v.1.15,2013-03-07 22:15:00,
2013-03-07 15:24:00,54.4,0.9,29.95,North,350,6.0,6.0,11,0.00,,,0.00,Wunderground v.1.15,2013-03-07 22:24:00,
2013-03-07 15:30:00,54.7,-0.9,29.94,North,355,5.0,9.0,10,0.00,,,0.00,Wunderground v.1.15,2013-03-07 22:30:00,
2013-03-07 15:35:00,54.7,-3.2,29.94,NNW,336,5.0,9.0,9,0.00,,,0.00,Wunderground v.1.15,2013-03-07 22:35:00,
2013-03-07 15:40:00,54.6,-1.0,29.94,WNW,297,7.0,7.0,10,0.00,,,0.00,Wunderground v.1.15,2013-03-07 22:40:00,
2013-03-07 15:45:00,54.5,1.0,29.94,NNW,330,6.0,7.0,11,0.00,,,0.00,Wunderground v.1.15,2013-03-07 22:45:00,
2013-03-07 15:54:00,54.4,0.9,29.95,NNW,342,5.0,6.0,11,0.00,,,0.00,Wunderground v.1.15,2013-03-07 22:54:00,
2013-03-07 16:00:00,54.0,-3.7,29.94,North,5,5.0,5.0,9,0.00,,,0.00,Wunderground v.1.15,2013-03-07 23:00:00,
2013-03-07 16:10:00,53.6,-1.8,29.94,WNW,298,4.0,4.0,10,0.00,,,0.00,Wunderground v.1.15,2013-03-07 23:10:00,
2013-03-07 16:20:00,53.5,0.2,29.94,NNW,329,4.0,4.0,11,0.00,,,0.00,Wunderground v.1.15,2013-03-07 23:20:00,
2013-03-07 16:29:00,52.7,1.4,29.93,WNW,301,3.0,3.0,12,0.00,,,0.00,Wunderground v.1.15,2013-03-07 23:29:00,
2013-03-07 16:35:00,51.6,5.4,29.93,West,269,3.0,3.0,15,0.00,,,0.00,Wunderground v.1.15,2013-03-07 23:35:00,
2013-03-07 16:40:00,51.6,3.9,29.93,NNW,339,4.0,5.0,14,0.00,,,0.00,Wunderground v.1.15,2013-03-07 23:40:00,
2013-03-07 16:50:00,50.1,8.2,29.94,NNW,335,2.0,2.0,18,0.00,,,0.00,Wunderground v.1.15,2013-03-07 23:50:00,
2013-03-07 16:55:00,49.8,11.4,29.94,West,263,2.0,2.0,21,0.00,,,0.00,Wunderground v.1.15,2013-03-07 23:55:00,
2013-03-07 17:00:00,48.9,13.6,29.93,West,279,1.0,3.0,24,0.00,,,0.00,Wunderground v.1.15,2013-03-08 00:00:00,
2013-03-07 17:10:00,46.4,15.8,29.94,SW,219,1.0,1.0,29,0.00,,,0.00,Wunderground v.1.15,2013-03-08 00:10:00,
2013-03-07 17:15:00,45.9,13.7,29.94,SW,220,1.0,1.0,27,0.00,,,0.00,Wunderground v.1.15,2013-03-08 00:15:00,
2013-03-07 17:20:00,44.6,18.6,29.94,SW,220,1.0,2.0,35,0.00,,,0.00,Wunderground v.1.15,2013-03-08 00:20:00,
2013-03-07 17:30:00,42.5,19.3,29.95,SSE,149,1.0,1.0,39,0.00,,,0.00,Wunderground v.1.15,2013-03-08 00:30:00,
2013-03-07 17:40:00,40.0,22.4,29.95,SSE,149,0.0,0.0,49,0.00,,,0.00,Wunderground v.1.15,2013-03-08 00:40:00,
2013-03-07 17:45:00,38.9,22.3,29.95,SSE,149,0.0,2.0,51,0.00,,,0.00,Wunderground v.1.15,2013-03-08 00:45:00,
2013-03-07 17:50:00,39.0,19.4,29.95,SSE,149,0.0,0.0,45,0.00,,,0.00,Wunderground v.1.15,2013-03-08 00:50:00,
2013-03-07 17:55:00,38.5,22.8,29.95,SSE,149,1.0,1.0,53,0.00,,,0.00,Wunderground v.1.15,2013-03-08 00:55:00,
2013-03-07 18:00:00,38.2,21.6,29.95,SE,130,1.0,1.0,51,0.00,,,0.00,Wunderground v.1.15,2013-03-08 01:00:00,
2013-03-07 18:10:00,37.5,22.8,29.95,SE,124,0.0,0.0,55,0.00,,,0.00,Wunderground v.1.15,2013-03-08 01:10:00,
2013-03-07 18:15:00,37.9,20.9,29.95,SE,124,0.0,0.0,50,0.00,,,0.00,Wunderground v.1.15,2013-03-08 01:15:00,
2013-03-07 18:25:00,37.4,21.4,29.95,SE,134,1.0,4.0,52,0.00,,,0.00,Wunderground v.1.15,2013-03-08 01:25:00,
2013-03-07 18:30:00,37.5,20.5,29.95,SE,143,1.0,1.0,50,0.00,,,0.00,Wunderground v.1.15,2013-03-08 01:30:00,
2013-03-07 18:45:00,36.7,21.2,29.96,SE,138,0.0,0.0,53,0.00,,,0.00,Wunderground v.1.15,2013-03-08 01:45:00,
2013-03-07 18:50:00,36.9,19.5,29.96,SE,138,0.0,2.0,49,0.00,,,0.00,Wunderground v.1.15,2013-03-08 01:50:00,
2013-03-07 19:00:00,36.0,22.2,29.96,SE,138,0.0,0.0,57,0.00,,,0.00,Wunderground v.1.15,2013-03-08 02:00:00,
2013-03-07 19:10:00,36.0,20.1,29.97,SE,138,0.0,0.0,52,0.00,,,0.00,Wunderground v.1.15,2013-03-08 02:10:00,
2013-03-07 19:15:00,35.6,22.7,29.97,SE,138,0.0,0.0,59,0.00,,,0.00,Wunderground v.1.15,2013-03-08 02:15:00,
2013-03-07 19:20:00,35.0,22.1,29.97,SE,138,0.0,1.0,59,0.00,,,0.00,Wunderground v.1.15,2013-03-08 02:20:00,
2013-03-07 19:29:00,34.5,22.0,29.97,SE,138,1.0,1.0,60,0.00,,,0.00,Wunderground v.1.15,2013-03-08 02:29:00,
2013-03-07 19:35:00,34.3,21.4,29.97,SE,138,0.0,1.0,59,0.00,,,0.00,Wunderground v.1.15,2013-03-08 02:35:00,
2013-03-07 19:45:00,33.5,22.6,29.97,SE,138,0.0,0.0,64,0.00,,,0.00,Wunderground v.1.15,2013-03-08 02:45:00,
2013-03-07 19:50:00,33.4,22.9,29.98,SE,138,0.0,0.0,65,0.00,,,0.00,Wunderground v.1.15,2013-03-08 02:50:00,
2013-03-07 19:55:00,33.4,22.1,29.98,SE,138,0.0,0.0,63,0.00,,,0.00,Wunderground v.1.15,2013-03-08 02:55:00,
2013-03-07 20:00:00,33.5,21.9,29.98,ESE,110,0.0,0.0,62,0.00,,,0.00,Wunderground v.1.15,2013-03-08 03:00:00,
2013-03-07 20:10:00,32.9,22.8,29.98,ESE,109,0.0,0.0,66,0.00,,,0.00,Wunderground v.1.15,2013-03-08 03:10:00,
2013-03-07 20:15:00,32.8,22.3,29.98,ESE,109,0.0,0.0,65,0.00,,,0.00,Wunderground v.1.15,2013-03-08 03:15:00,
2013-03-07 20:20:00,33.4,21.4,29.98,East,88,1.0,1.0,61,0.00,,,0.00,Wunderground v.1.15,2013-03-08 03:20:00,
2013-03-07 20:25:00,33.5,20.7,29.98,East,99,2.0,5.0,59,0.00,,,0.00,Wunderground v.1.15,2013-03-08 03:25:00,
2013-03-07 20:30:00,33.6,21.2,29.98,East,90,3.0,5.0,60,0.00,,,0.00,Wunderground v.1.15,2013-03-08 03:30:00,
2013-03-07 20:40:00,33.3,20.1,29.98,ESE,103,3.0,8.0,58,0.00,,,0.00,Wunderground v.1.15,2013-03-08 03:40:00,
2013-03-07 20:45:00,33.4,20.6,29.99,ESE,102,4.0,8.0,59,0.00,,,0.00,Wunderground v.1.15,2013-03-08 03:45:00,
2013-03-07 20:50:00,33.4,20.6,29.99,ESE,115,4.0,4.0,59,0.00,,,0.00,Wunderground v.1.15,2013-03-08 03:50:00,
2013-03-07 20:55:00,33.0,20.6,29.99,ESE,104,2.0,4.0,60,0.00,,,0.00,Wunderground v.1.15,2013-03-08 03:55:00,
2013-03-07 21:00:00,32.7,20.3,29.99,ESE,115,2.0,2.0,60,0.00,,,0.00,Wunderground v.1.15,2013-03-08 04:00:00,
2013-03-07 21:09:00,32.9,19.7,29.99,East,92,5.0,5.0,58,0.00,,,0.00,Wunderground v.1.15,2013-03-08 04:09:00,
2013-03-07 21:15:00,32.9,20.1,30.00,East,96,5.0,5.0,59,0.00,,,0.00,Wunderground v.1.15,2013-03-08 04:15:00,
2013-03-07 21:20:00,33.0,19.0,30.00,ESE,108,5.0,5.0,56,0.00,,,0.00,Wunderground v.1.15,2013-03-08 04:20:00,
2013-03-07 21:25:00,33.0,20.2,30.00,East,98,3.0,5.0,59,0.00,,,0.00,Wunderground v.1.15,2013-03-08 04:25:00,
2013-03-07 21:30:00,32.6,20.2,30.00,East,99,1.0,1.0,60,0.00,,,0.00,Wunderground v.1.15,2013-03-08 04:30:00,
2013-03-07 21:45:00,32.4,20.4,30.00,East,101,1.0,1.0,61,0.00,,,0.00,Wunderground v.1.15,2013-03-08 04:45:00,
2013-03-07 21:55:00,32.5,20.1,30.00,East,91,2.0,6.0,60,0.00,,,0.00,Wunderground v.1.15,2013-03-08 04:55:00,
2013-03-07 22:00:00,32.7,20.3,30.00,ESE,103,3.0,3.0,60,0.00,,,0.00,Wunderground v.1.15,2013-03-08 05:00:00,
2013-03-07 22:04:00,32.6,19.8,30.00,ENE,71,2.0,3.0,59,0.00,,,0.00,Wunderground v.1.15,2013-03-08 05:04:00,
2013-03-07 22:10:00,32.5,20.1,30.01,East,93,2.0,2.0,60,0.00,,,0.00,Wunderground v.1.15,2013-03-08 05:10:00,
2013-03-07 22:15:00,32.3,20.3,30.00,ESE,103,1.0,3.0,61,0.00,,,0.00,Wunderground v.1.15,2013-03-08 05:15:00,
2013-03-07 22:20:00,32.3,20.3,30.00,East,89,2.0,5.0,61,0.00,,,0.00,Wunderground v.1.15,2013-03-08 05:20:00,
2013-03-07 22:25:00,32.1,20.9,30.00,ESE,105,1.0,5.0,63,0.00,,,0.00,Wunderground v.1.15,2013-03-08 05:25:00,
2013-03-07 22:35:00,31.7,20.9,29.99,ESE,123,0.0,1.0,64,0.00,,,0.00,Wunderground v.1.15,2013-03-08 05:35:00,
2013-03-07 22:39:00,31.4,20.2,30.00,SE,140,1.0,1.0,63,0.00,,,0.00,Wunderground v.1.15,2013-03-08 05:39:00,
2013-03-07 22:44:00,31.1,20.0,29.99,SE,140,1.0,1.0,63,0.00,,,0.00,Wunderground v.1.15,2013-03-08 05:44:00,
2013-03-07 22:50:00,30.9,20.5,29.99,SE,140,0.0,1.0,65,0.00,,,0.00,Wunderground v.1.15,2013-03-08 05:50:00,
2013-03-07 22:55:00,30.8,20.4,29.98,SE,142,0.0,1.0,65,0.00,,,0.00,Wunderground v.1.15,2013-03-08 05:55:00,
2013-03-07 23:00:00,30.4,20.4,29.98,SW,219,0.0,3.0,66,0.00,,,0.00,Wunderground v.1.15,2013-03-08 06:00:00,
2013-03-07 23:10:00,30.4,20.4,29.98,SSW,203,1.0,1.0,66,0.00,,,0.00,Wunderground v.1.15,2013-03-08 06:10:00,
2013-03-07 23:15:00,30.4,20.4,29.98,SW,229,1.0,1.0,66,0.00,,,0.00,Wunderground v.1.15,2013-03-08 06:15:00,
2013-03-07 23:20:00,30.4,20.7,29.98,SW,229,1.0,1.0,67,0.00,,,0.00,Wunderground v.1.15,2013-03-08 06:20:00,
2013-03-07 23:25:00,30.4,20.4,29.98,SW,229,0.0,1.0,66,0.00,,,0.00,Wunderground v.1.15,2013-03-08 06:25:00,
2013-03-07 23:30:00,30.2,20.9,29.98,SW,229,1.0,1.0,68,0.00,,,0.00,Wunderground v.1.15,2013-03-08 06:30:00,
2013-03-07 23:40:00,30.5,20.5,29.98,ESE,103,1.0,1.0,66,0.00,,,0.00,Wunderground v.1.15,2013-03-08 06:40:00,
2013-03-07 23:45:00,30.7,20.7,29.98,ESE,123,1.0,1.0,66,0.00,,,0.00,Wunderground v.1.15,2013-03-08 06:45:00,
2013-03-07 23:50:00,30.8,20.4,29.98,ESE,123,0.0,0.0,65,0.00,,,0.00,Wunderground v.1.15,2013-03-08 06:50:00,
2013-03-07 23:55:00,30.8,20.8,29.98,SW,215,0.0,0.0,66,0.00,,,0.00,Wunderground v.1.15,2013-03-08 06:55:00,